Theta_e
325 321 325 321 308 306 301 300 303 302 303 307 309 308 309 308 305 303 327 341 343 344 346 346 350 352 353 351 349 349 348 345 344 343 341 340 339 338 338 339 340 340 342 342 342 345 343 341 339
320 318 321 315 304 298 300 302 301 305 307 309 308 310 308 308 318 324 330 340 344 345 346 346 347 351 352 350 349 349 349 347 343 342 341 339 337 337 336 337 338 338 341 339 344 344 342 339 337
317 315 316 311 305 298 299 302 304 305 308 307 308 312 311 310 319 329 332 341 344 345 347 348 347 350 351 351 350 349 349 346 343 341 340 338 336 334 334 335 336 338 339 342 343 342 340 337 336
318 315 310 304 300 302 301 304 305 307 306 306 309 307 315 321 324 327 335 341 345 345 347 346 348 351 351 350 349 347 347 346 343 340 339 337 334 332 332 333 335 336 338 341 342 340 337 334 333
316 314 304 302 300 301 303 304 306 306 305 306 309 306 311 320 324 329 340 341 344 345 347 349 346 348 350 350 350 348 347 346 343 340 338 336 333 331 330 331 333 334 337 339 337 333 330 329 328
311 311 302 299 300 301 303 305 306 307 305 306 306 307 311 322 323 331 342 342 345 344 347 348 341 343 347 348 348 347 346 345 342 340 339 337 333 330 328 330 332 333 334 334 330 327 325 325 325
309 306 301 300 299 300 303 305 305 306 305 305 309 305 312 318 326 333 342 343 345 345 346 347 347 343 338 341 342 343 343 343 342 341 340 338 335 331 330 330 329 330 330 329 326 323 322 322 324
309 308 299 300 299 300 304 304 304 306 305 307 312 305 307 318 329 336 341 342 343 344 345 345 345 344 345 347 335 337 339 340 340 338 335 333 331 330 330 327 327 326 326 324 322 320 320 322 322
304 302 299 299 298 301 302 302 303 305 305 306 309 308 310 321 329 333 336 337 339 341 344 344 344 344 344 345 340 334 334 335 334 333 329 327 330 329 328 326 326 324 323 322 321 320 320 319 318
304 301 300 301 303 302 302 303 304 303 303 304 306 308 308 321 326 329 332 332 334 335 339 342 344 344 344 342 343 343 342 343 341 337 332 334 331 330 328 324 323 323 322 320 319 316 314 317 318
300 299 298 300 301 301 302 301 304 303 302 306 307 309 308 318 324 326 329 331 332 335 336 338 342 344 344 340 341 345 342 342 341 337 335 333 331 329 327 325 323 322 318 317 316 316 315 315 316
299 300 299 300 301 301 301 302 302 303 306 307 309 308 309 312 320 324 326 330 332 334 333 335 339 340 344 344 342 343 340 340 340 339 336 333 330 328 325 322 320 318 319 317 316 315 314 313 312
300 300 300 301 301 301 301 302 303 303 307 307 305 304 307 310 316 323 326 329 332 331 332 331 332 336 337 339 341 343 341 341 341 340 339 333 330 328 326 322 319 318 317 316 313 310 309 309 309
301 301 301 302 302 302 300 301 300 304 305 305 304 305 307 308 312 319 323 325 328 330 330 329 327 330 331 333 336 340 343 343 340 340 337 332 330 328 324 322 320 318 317 315 312 309 307 304 304
301 299 301 302 300 301 301 300 300 306 304 304 304 306 306 306 309 314 320 322 327 328 329 325 324 325 325 327 329 334 339 339 339 338 338 334 330 327 324 323 320 317 319 316 311 306 303 299 298
299 299 296 298 299 300 301 296 303 303 302 304 306 307 306 307 306 309 315 321 325 326 323 323 318 320 323 325 326 329 334 334 334 335 337 337 331 329 325 322 320 317 313 313 308 304 300 298 295
297 293 294 296 299 298 299 298 303 302 302 303 306 306 306 306 307 308 310 314 320 321 320 319 318 319 320 322 322 326 329 331 331 330 334 336 333 331 327 322 318 315 310 309 304 302 300 295 293
293 293 293 294 296 297 297 297 302 304 303 303 305 306 307 306 307 309 308 309 312 316 317 317 315 316 318 319 320 321 321 323 325 325 324 331 332 330 327 319 315 312 309 305 303 299 296 296 293
294 293 293 296 296 296 297 297 300 303 303 302 304 305 306 307 310 310 309 309 308 310 312 313 312 314 316 317 316 316 316 315 315 315 317 319 327 326 321 316 312 308 305 303 300 295 293 293 293
294 293 293 296 296 295 296 296 299 301 302 303 304 305 306 307 308 308 307 307 306 307 309 310 312 313 316 316 316 316 317 314 313 309 309 310 315 319 317 313 309 307 304 301 296 294 292 291 294
294 293 293 293 295 295 294 294 297 300 300 301 303 305 306 306 307 308 306 305 306 306 307 308 310 312 315 315 316 311 311 309 306 304 305 303 307 311 313 311 309 305 303 299 296 296 293 292 294
291 296 295 292 292 289 293 286 295 298 299 301 302 305 305 306 306 305 305 305 305 306 308 308 310 311 313 315 312 311 311 310 311 308 306 300 302 303 307 307 305 303 302 300 296 296 297 295 294
293 294 293 292 291 290 292 288 294 295 296 299 302 305 304 305 304 304 304 304 305 305 306 307 309 310 312 313 312 311 311 313 312 307 300 300 297 299 300 301 302 301 302 301 299 296 299 299 299
295 293 292 292 291 286 291 289 291 294 296 299 302 301 302 303 303 302 300 299 301 303 304 306 307 309 311 311 311 310 310 312 308 306 301 297 294 295 293 296 297 297 298 298 298 299 300 301 300
295 292 286 285 284 284 289 288 292 297 298 300 303 302 302 303 303 303 301 299 299 301 303 305 306 307 309 309 309 308 310 311 309 306 304 297 292 290 289 290 291 294 294 295 297 298 299 299 298
292 293 287 283 283 287 287 285 294 299 301 303 302 300 300 301 303 301 300 300 300 301 303 304 305 306 307 307 307 307 309 308 309 307 306 301 295 295 292 290 289 290 292 293 295 297 298 297 296
291 288 295 289 281 284 289 295 299 299 299 299 300 299 302 303 303 301 299 299 300 301 302 303 304 305 305 305 307 307 307 306 305 302 299 297 296 291 288 287 286 288 288 291 292 295 291 292 291
294 296 288 289 284 283 288 289 291 296 297 300 300 299 303 302 300 299 298 298 299 300 302 304 304 304 304 304 305 305 304 304 302 296 294 293 290 287 286 286 285 285 286 287 292 291 289 289 288
291 290 290 291 289 286 285 290 299 299 301 300 301 301 302 301 301 299 298 298 298 299 301 302 303 303 302 303 303 302 301 300 297 294 294 290 288 285 284 284 284 285 284 286 286 288 288 287 286
293 293 292 287 284 287 287 289 296 297 298 299 300 300 301 301 300 299 298 298 298 298 299 300 303 302 301 302 302 301 300 297 294 292 291 289 287 285 284 284 283 283 284 286 284 286 286 285 284
Wind_Speed
4 5 0 2 4 4 1 3 1 5 5 2 3 4 3 4 2 3 4 8 10 13 12 14 10 10 10 11 12 12 13 13 14 13 13 14 13 13 14 14 13 13 14 15 14 20 19 19 20
4 1 1 1 4 4 2 3 7 6 2 5 4 3 3 1 1 5 10 7 13 12 12 13 10 10 12 13 12 13 13 13 13 13 14 14 14 14 14 14 13 13 15 13 15 19 20 19 19
3 2 2 0 2 4 3 4 5 5 7 3 4 3 1 1 4 11 3 11 13 13 11 11 11 12 12 11 11 12 12 14 13 13 14 14 14 14 14 15 13 14 15 15 18 19 20 18 18
1 3 4 4 4 1 3 2 5 10 4 3 2 4 2 0 7 3 7 11 14 13 12 12 11 13 13 12 12 12 12 14 14 13 13 14 14 14 15 15 15 15 14 17 19 19 19 18 18
1 2 3 2 2 2 3 2 8 11 3 4 4 2 1 4 3 5 9 11 15 14 12 14 10 12 12 12 12 12 12 14 15 14 14 14 14 15 15 15 16 16 16 19 19 19 19 19 18
3 2 4 7 3 2 3 4 8 11 3 4 5 3 2 4 7 7 10 13 14 14 12 12 10 10 11 11 12 12 12 13 14 14 13 14 14 15 15 15 16 17 17 18 19 19 19 19 19
1 3 4 2 2 3 3 7 8 12 6 6 1 4 3 8 8 8 11 12 13 13 13 12 13 12 9 10 11 13 14 14 15 13 13 12 13 14 14 14 16 17 18 18 19 20 19 19 19
2 2 4 4 5 5 6 8 2 10 9 2 2 5 3 9 10 9 10 11 12 12 12 13 13 13 12 12 10 12 13 13 14 12 11 11 11 12 12 12 15 18 18 19 20 20 20 20 19
1 4 7 5 6 3 6 8 4 1 4 4 6 3 4 8 11 11 11 11 10 10 12 12 13 13 12 11 9 10 13 14 14 12 12 13 10 12 11 12 15 18 19 19 20 21 21 20 19
4 5 7 1 3 3 5 7 6 5 7 7 7 9 4 11 12 14 16 15 14 14 12 11 13 13 12 7 10 11 9 11 12 11 11 4 7 7 11 11 13 17 18 19 20 19 14 10 9
2 4 2 2 3 2 2 5 4 7 10 12 13 11 12 13 14 16 17 17 17 15 11 11 11 13 12 8 6 5 5 5 7 12 8 7 6 8 6 8 8 10 12 10 12 10 8 10 7
4 3 3 1 2 3 3 3 5 13 14 2 9 1 13 15 17 19 19 18 17 15 14 12 11 10 11 9 8 6 6 6 6 9 12 10 6 6 8 5 8 6 5 10 8 8 11 12 12
3 2 3 1 2 4 1 7 7 13 15 10 3 5 11 14 17 16 15 15 15 16 15 13 11 11 9 9 8 8 7 8 9 10 12 8 8 7 7 7 6 7 7 8 9 10 10 11 12
2 1 2 2 3 3 5 4 2 5 4 12 11 13 13 14 17 14 15 17 17 16 16 14 13 11 10 9 9 8 7 10 9 8 11 10 8 7 7 7 6 7 7 8 9 9 9 9 10
1 3 4 7 3 3 3 9 16 16 5 11 11 13 13 14 13 19 18 19 18 15 14 15 14 12 11 11 9 8 7 5 7 9 14 14 10 10 9 7 7 7 9 11 10 10 9 10 10
0 1 4 3 4 1 5 12 9 1 6 15 14 14 14 15 17 17 16 17 17 16 16 15 11 13 13 11 9 8 8 7 6 7 9 16 14 13 9 8 9 8 7 10 9 9 10 9 9
0 5 5 5 3 1 7 10 5 2 5 11 11 12 13 14 16 17 17 18 18 17 16 16 15 15 14 11 9 9 9 8 8 6 7 15 17 17 13 10 9 11 8 8 8 9 10 10 9
5 5 4 8 3 3 8 20 19 14 14 18 19 17 16 15 18 16 18 18 17 17 17 16 14 15 13 9 8 8 6 7 6 6 5 13 12 16 13 9 11 10 8 10 9 11 9 9 12
2 4 10 8 3 4 15 20 23 18 17 20 20 21 20 21 18 14 13 15 16 16 17 18 17 16 12 11 10 9 10 7 4 3 5 4 8 13 13 9 11 10 9 12 13 12 14 11 11
7 11 14 13 4 7 14 19 22 22 24 23 22 23 24 22 18 14 13 14 17 19 19 18 19 18 15 11 10 7 9 7 4 3 4 4 5 10 10 13 12 13 11 9 13 15 11 6 10
11 15 12 10 6 9 11 16 15 10 12 17 23 26 23 21 21 15 13 15 16 18 20 20 20 19 16 15 10 6 5 3 4 4 4 3 3 6 10 12 12 13 13 13 13 15 13 11 10
15 12 10 6 4 11 1 12 18 13 16 15 19 19 15 14 15 13 12 14 16 17 16 17 17 18 16 17 14 16 11 9 7 7 5 4 4 4 6 10 12 12 11 13 14 12 11 13 13
3 4 6 2 5 7 10 10 5 2 9 20 18 11 4 8 8 7 8 9 9 10 13 14 16 17 17 16 15 12 13 9 7 6 7 7 4 3 6 8 11 12 9 12 15 14 11 11 11
10 6 4 2 2 12 12 12 9 5 11 9 11 1 2 3 2 1 1 0 3 5 9 12 16 17 17 16 17 16 15 12 9 9 7 6 4 5 4 6 9 9 8 12 11 11 14 11 10
6 8 4 5 5 11 4 10 13 15 13 13 11 3 2 1 6 6 2 1 3 6 9 10 13 14 15 14 15 15 15 14 14 11 9 9 6 4 6 7 8 8 8 7 9 11 13 11 10
14 11 8 7 6 11 4 11 7 13 15 19 10 8 7 11 5 4 3 4 6 7 9 11 13 14 14 16 16 14 15 10 10 11 9 9 8 7 8 9 8 8 9 8 9 9 9 9 7
8 12 9 6 2 6 11 20 10 10 15 11 13 7 9 8 5 4 4 5 6 8 9 11 12 13 14 15 13 14 13 13 10 11 8 6 7 6 8 7 8 9 9 10 10 9 10 9 8
10 10 6 7 6 10 13 11 13 6 14 15 14 11 9 5 5 5 5 5 5 6 8 10 12 13 14 14 14 12 14 13 11 9 10 10 7 9 9 10 10 10 9 10 13 10 11 11 8
8 11 5 3 6 6 13 14 3 9 8 8 6 8 8 8 6 5 5 5 5 6 8 10 12 13 14 14 14 13 12 12 10 9 10 10 10 10 11 10 10 12 12 11 11 12 14 15 13
7 14 18 9 7 7 6 22 5 3 6 5 7 7 6 5 5 4 4 5 6 7 8 10 12 13 14 14 15 14 12 12 11 9 10 10 10 9 11 11 10 9 11 13 12 15 13 15 14
Wind_Direction
17 27 1 227 246 265 257 153 5 168 183 124 148 215 228 356 305 15 123 139 153 153 159 167 156 152 141 132 136 132 120 114 103 101 98 97 97 95 91 92 84 86 88 86 86 100 93 86 81
36 130 196 106 261 279 72 141 199 181 66 131 148 184 216 197 105 116 144 165 161 154 158 164 153 151 144 147 145 141 130 115 110 105 103 100 96 92 91 90 91 93 89 92 98 94 89 87 83
112 331 243 310 272 289 332 193 178 130 130 172 175 261 271 119 149 154 102 158 165 159 161 150 154 158 151 150 147 145 134 119 115 111 107 102 97 94 92 91 92 91 90 95 93 91 90 88 83
164 160 135 252 282 285 311 168 155 149 198 224 260 205 195 307 148 141 151 162 170 164 164 143 157 157 153 155 156 152 142 126 119 113 106 102 99 96 94 95 96 92 94 93 89 88 87 87 84
66 213 208 241 275 277 239 237 185 183 171 179 194 146 199 178 160 161 157 171 172 168 167 163 165 158 156 155 153 150 142 129 122 122 118 112 107 104 102 100 100 99 94 91 89 89 87 85 84
152 258 207 238 231 218 244 195 183 199 197 150 215 211 155 132 183 170 165 176 173 170 170 168 167 162 161 156 154 149 146 132 128 127 121 115 112 109 105 104 104 104 100 98 95 91 89 87 84
209 213 221 226 266 249 206 165 205 196 207 210 304 238 106 182 174 169 169 169 175 172 175 175 177 177 170 166 163 156 149 141 137 136 126 116 111 108 107 107 107 104 102 100 98 96 94 92 88
128 228 174 210 230 252 160 177 262 210 219 89 236 241 182 169 157 165 167 173 178 178 183 181 180 181 181 178 168 156 152 147 140 132 124 115 110 109 105 107 105 106 104 104 101 99 97 92 85
239 215 229 219 181 217 150 196 159 8 229 214 200 266 71 146 153 165 172 180 181 189 194 188 182 184 184 179 174 160 159 152 144 143 144 148 133 130 135 102 114 112 110 107 104 99 94 90 80
220 230 224 221 197 222 178 213 187 202 203 228 227 207 165 168 179 183 188 190 193 192 192 195 191 187 182 179 174 178 167 168 163 160 157 137 132 137 128 114 115 116 113 110 106 101 98 96 96
155 246 172 211 214 241 199 212 206 224 224 228 225 212 186 185 194 202 202 200 196 192 189 196 195 195 183 173 169 172 168 171 165 166 158 141 131 132 130 131 125 125 127 119 117 110 90 90 88
214 201 196 77 182 175 215 141 223 228 237 265 244 189 186 197 200 206 207 205 197 194 194 188 191 193 193 188 182 180 165 172 165 174 168 161 151 149 146 140 141 138 132 125 122 113 111 100 93
218 176 194 221 217 240 249 234 260 251 244 233 234 209 212 213 215 214 214 209 204 201 193 190 187 190 186 195 192 193 184 190 172 181 178 170 161 161 151 149 144 141 142 132 125 123 116 109 104
86 261 290 266 229 240 249 253 244 246 289 240 230 236 228 222 221 214 210 211 206 203 197 189 193 193 187 197 201 205 191 197 169 183 181 174 165 160 158 153 147 141 142 133 131 128 122 113 110
82 281 275 224 215 234 220 247 234 256 243 259 235 241 238 233 226 221 215 215 206 204 198 195 194 193 196 199 202 212 212 182 188 189 190 180 169 165 164 153 156 151 150 135 131 125 121 117 114
293 240 260 121 177 116 222 261 260 223 253 261 259 250 245 239 229 229 224 218 211 203 201 197 193 199 201 203 203 208 211 204 205 191 189 187 177 168 165 162 161 149 152 141 141 135 130 119 113
167 261 230 296 182 144 226 280 260 259 250 267 266 260 252 251 237 232 220 217 211 207 201 202 200 202 204 207 209 209 215 212 209 193 197 196 189 181 169 167 155 152 147 149 142 141 141 133 120
203 225 223 258 134 218 232 262 268 260 271 273 275 268 260 250 243 236 219 216 211 208 207 204 200 203 201 200 204 206 206 216 209 196 202 205 192 183 173 157 155 152 153 150 142 139 143 139 130
117 250 272 259 198 240 252 263 273 277 267 267 264 263 257 252 248 236 223 214 209 207 206 204 198 199 193 196 195 205 205 208 206 209 186 196 188 177 166 157 157 151 163 158 147 140 139 141 136
231 258 264 280 251 224 274 263 272 267 258 260 265 263 258 260 252 239 221 211 208 207 206 203 204 197 198 198 197 207 195 205 194 176 197 173 178 174 168 160 164 164 146 159 156 151 143 134 173
225 235 250 264 318 227 288 271 242 266 265 257 255 256 263 263 265 253 223 217 212 211 205 204 203 199 198 197 187 168 154 157 170 196 205 183 175 180 169 167 168 167 162 158 171 165 157 158 182
248 218 237 256 292 284 311 287 282 269 264 259 261 255 259 266 261 258 240 228 213 215 211 209 202 199 198 193 189 199 200 195 198 192 184 174 175 175 167 165 165 171 163 173 175 181 174 159 170
259 123 185 169 238 313 225 265 231 147 267 263 264 274 276 279 271 273 251 246 232 213 207 205 201 201 197 194 203 199 210 210 188 175 159 182 148 166 161 166 170 172 180 176 177 192 182 180 169
138 95 78 105 218 258 240 221 275 210 231 265 265 153 130 67 22 346 25 64 193 195 205 205 204 203 200 200 204 204 204 206 191 181 183 180 166 187 145 168 177 169 176 170 174 193 187 178 182
187 163 235 237 201 258 93 218 266 279 239 240 264 190 237 275 303 303 306 128 166 188 196 202 206 208 206 203 207 205 214 204 207 187 191 183 172 187 171 169 169 180 163 182 166 189 191 180 184
193 206 209 241 242 282 124 238 253 234 258 251 259 259 260 262 246 256 235 194 188 187 193 195 201 205 199 205 203 203 211 206 210 196 193 196 189 184 171 178 176 169 163 166 175 187 184 174 177
166 211 249 276 103 280 252 267 250 225 253 257 247 238 238 229 225 222 201 203 190 188 198 201 203 210 200 209 205 202 202 206 202 194 183 181 179 156 158 164 163 159 159 173 177 175 160 156 157
221 142 163 214 232 242 252 260 251 227 238 243 230 225 233 230 185 183 177 190 195 196 200 205 206 207 204 208 207 203 199 201 195 168 177 176 163 155 161 166 168 159 164 165 172 164 152 150 146
173 210 219 252 230 254 277 263 208 235 254 244 227 204 181 172 176 170 185 195 201 199 200 208 208 206 202 207 208 206 200 196 184 180 182 178 170 160 162 166 166 175 170 165 161 165 155 152 147
258 227 204 213 203 242 269 267 138 287 300 222 180 173 161 176 170 173 212 218 207 208 208 215 215 206 203 206 204 203 196 188 184 185 179 173 173 168 167 168 165 176 175 163 160 156 164 154 151